Date String (YYYY-MM-DD hh:mm:ss) UTC,Instrument flags,Ambient pressure (hPa),Sample flow (lpm),Bypass flow (lpm),Sample temperature (°C),Ambient temperature (°C),ASC tube jacket temperature (°C),LED temperature (°C),Box temperature (°C),Sample RH (%),Span deviation,Mass concentration (μg/m³),Mass concentration (μg/m³),Mass concentration (μg/m³)
DateTimeUTC,F1_M11,P_M11,Q1_M11,Q2_M11,T1_M11,T2_M11,T3_M11,T4_M11,T5_M11,U1_M11,ZSPAN_M11,X0_M11,X2_M11,X1_M11
2022-04-18 21:00:00,,0828.8,5.00,0.00,26.9,26.3,00.0,35.7,28.8,10.6,0000.0,0019.04,0007.83,0005.70
2022-04-18 21:01:00,,0828.8,5.00,0.00,27.0,26.3,00.0,35.7,28.8,10.6,0000.0,0019.34,0007.90,0005.73
2022-04-18 21:02:00,,0828.7,5.00,0.00,27.0,26.3,00.0,35.7,28.8,10.6,0000.0,0019.18,0008.02,0005.75
2022-04-18 21:03:00,,0828.8,4.99,0.00,27.0,26.3,00.0,35.8,28.9,10.5,0000.0,0018.49,0007.97,0005.76
2022-04-18 21:04:00,,0828.9,5.00,0.00,27.0,26.3,00.0,35.8,28.9,10.5,0000.0,0018.86,0008.03,0005.78
2022-04-18 21:05:00,,0829.0,5.00,0.00,27.0,26.4,00.0,35.8,28.9,10.6,0000.0,0018.51,0007.97,0005.77
2022-04-18 21:06:00,,0829.4,5.00,0.00,27.0,26.4,00.0,35.8,28.9,10.5,0000.0,0017.44,0007.99,0005.78
2022-04-18 21:07:00,,0828.7,5.00,0.00,27.0,26.4,00.0,35.8,28.9,10.5,0000.0,0017.59,0008.01,0005.76
2022-04-18 21:08:00,,0828.7,5.00,0.00,27.1,26.4,00.0,35.8,28.9,10.5,0000.9,0017.66,0007.96,0005.75
2022-04-18 21:09:00,,0828.9,5.01,0.00,27.1,26.4,00.0,35.9,28.9,10.5,0003.9,0017.78,0007.87,0005.76
2022-04-18 21:10:00,,0828.7,5.00,0.00,27.1,26.5,00.0,35.9,29.0,10.5,0004.9,0017.56,0007.86,0005.79
2022-04-18 21:11:00,,0828.7,5.00,0.00,27.1,26.5,00.0,35.9,29.0,10.5,0003.8,0017.28,0007.85,0005.84
2022-04-18 21:12:00,,0828.9,5.00,0.00,27.2,26.5,00.0,35.9,29.0,10.5,0004.1,0016.66,0007.88,0005.88
2022-04-18 21:13:00,,0828.7,5.00,0.00,27.2,26.6,00.0,35.9,29.1,10.5,0001.1,0016.56,0007.82,0005.92
2022-04-18 21:14:00,,0828.7,5.00,0.00,27.2,26.6,00.0,36.0,29.1,10.5,0000.0,0016.93,0007.87,0005.94
2022-04-18 21:15:00,,0828.6,5.00,0.00,27.2,26.6,00.0,36.0,29.1,10.5,0000.0,0017.99,0007.90,0005.95
2022-04-18 21:16:00,,0829.0,5.00,0.00,27.3,26.6,00.0,36.0,29.2,10.4,0000.0,0018.35,0008.03,0006.00
2022-04-18 21:17:00,,0828.5,5.00,0.00,27.3,26.6,00.0,36.0,29.2,10.3,0000.0,0019.79,0008.09,0006.04
2022-04-18 21:18:00,,0828.4,5.00,0.00,27.3,26.7,00.0,36.0,29.2,10.3,0000.0,0020.78,0008.17,0006.08
2022-04-18 21:19:00,,0828.5,5.00,0.00,27.3,26.7,00.0,36.1,29.2,10.3,0000.0,0021.16,0008.18,0006.11
2022-04-18 21:20:00,,0828.5,5.00,0.00,27.4,26.7,00.0,36.1,29.3,10.4,0000.0,0021.76,0008.19,0006.11
2022-04-18 21:21:00,,0828.5,4.99,0.00,27.4,26.7,00.0,36.1,29.3,10.4,0000.0,0022.45,0008.16,0006.09
2022-04-18 21:22:00,,0828.5,5.00,0.00,27.4,26.8,00.0,36.1,29.3,10.4,0000.0,0022.44,0008.11,0006.06
2022-04-18 21:23:00,,0828.4,5.00,0.00,27.4,26.8,00.0,36.1,29.3,10.4,0000.0,0022.19,0008.04,0006.01
2022-04-18 21:24:00,,0828.4,4.99,0.00,27.4,26.8,00.0,36.2,29.3,10.5,0000.0,0021.93,0007.97,0005.97
2022-04-18 21:25:00,,0828.4,5.00,0.00,27.4,26.8,00.0,36.2,29.3,10.5,0001.5,0021.91,0007.91,0005.94
2022-04-18 21:26:00,,0828.4,5.00,0.00,27.4,26.8,00.0,36.2,29.3,10.5,0004.6,0021.34,0007.90,0005.93
2022-04-18 21:27:00,,0828.3,4.99,0.00,27.5,26.8,00.0,36.2,29.3,10.5,0004.6,0022.52,0007.82,0005.87
2022-04-18 21:28:00,,0828.4,5.00,0.00,27.5,26.8,00.0,36.2,29.3,10.5,0004.0,0021.42,0007.75,0005.81
2022-04-18 21:29:00,,0828.3,5.00,0.00,27.5,26.9,00.0,36.2,29.4,10.5,0003.5,0021.07,0007.71,0005.78
2022-04-18 21:30:00,,0828.3,5.00,0.00,27.5,26.9,00.0,36.3,29.4,10.5,0004.3,0020.94,0007.72,0005.73
2022-04-18 21:31:00,,0828.3,5.00,0.00,27.5,26.9,00.0,36.3,29.4,10.5,0005.2,0020.66,0007.66,0005.67
2022-04-18 21:32:00,,0828.3,5.01,0.00,27.6,26.9,00.0,36.3,29.4,10.5,0004.9,0020.53,0007.66,0005.62
2022-04-18 21:33:00,,0828.3,5.01,0.00,27.6,26.9,00.0,36.3,29.4,10.6,0003.5,0020.99,0007.68,0005.57
2022-04-18 21:34:00,,0828.3,5.00,0.00,27.6,26.8,00.0,36.3,29.4,10.6,0003.0,0020.94,0007.63,0005.53
2022-04-18 21:35:00,,0828.3,5.00,0.00,27.6,26.9,00.0,36.3,29.4,10.6,0002.5,0020.85,0007.60,0005.49
2022-04-18 21:36:00,,0828.2,5.00,0.00,27.6,26.9,00.0,36.4,29.3,10.6,0000.8,0021.62,0007.60,0005.45
2022-04-18 21:37:00,,0828.1,4.99,0.00,27.5,26.5,00.0,36.3,29.1,10.7,0000.0,0021.55,0007.55,0005.39
2022-04-18 21:38:00,,0828.1,5.02,0.00,27.4,26.3,00.0,36.3,29.1,10.7,0000.0,0019.91,0007.45,0005.34
2022-04-18 21:39:00,,0828.1,4.99,0.00,27.4,26.3,00.0,36.3,29.1,10.7,0001.5,0019.81,0007.37,0005.31
2022-04-18 21:40:00,,0828.1,4.99,0.00,27.4,26.4,00.0,36.3,29.2,10.8,0001.2,0019.96,0007.41,0005.25
2022-04-18 21:41:00,,0828.0,5.01,0.00,27.4,26.4,00.0,36.3,29.2,10.8,0000.1,0020.32,0007.39,0005.20
2022-04-18 21:42:00,,0828.0,5.00,0.00,27.4,26.5,00.0,36.3,29.2,10.8,0000.0,0021.61,0007.35,0005.15
2022-04-18 21:43:00,,0827.9,5.00,0.00,27.4,26.5,00.0,36.3,29.2,10.8,0000.0,0022.88,0007.42,0005.11
2022-04-18 21:44:00,,0828.0,5.00,0.00,27.4,26.6,00.0,36.3,29.2,10.9,0000.0,0022.66,0007.37,0005.07
2022-04-18 21:45:00,,0828.0,4.99,0.00,27.4,26.6,00.0,36.3,29.2,10.9,0000.0,0022.68,0007.38,0005.04
2022-04-18 21:46:00,,0827.9,5.00,0.00,27.4,26.7,00.0,36.3,29.2,10.9,0000.0,0023.01,0007.38,0005.03
2022-04-18 21:47:00,,0827.9,4.99,0.00,27.4,26.7,00.0,36.3,29.2,10.9,0000.0,0022.02,0007.38,0005.01
2022-04-18 21:48:00,,0827.9,5.01,0.00,27.5,26.7,00.0,36.3,29.3,10.9,0000.0,0021.87,0007.39,0005.02
2022-04-18 21:49:00,,0827.9,5.00,0.00,27.5,26.7,00.0,36.4,29.3,10.8,0000.0,0022.20,0007.41,0005.01
2022-04-18 21:50:00,,0827.8,4.99,0.00,27.5,26.7,00.0,36.4,29.3,10.7,0000.0,0022.55,0007.40,0005.00
2022-04-18 21:51:00,,0827.8,5.00,0.00,27.5,26.7,00.0,36.4,29.3,10.7,0000.0,0022.90,0007.34,0005.01
2022-04-18 21:52:00,,0827.8,5.00,0.00,27.5,26.7,00.0,36.4,29.3,10.8,0000.0,0023.39,0007.27,0005.01
2022-04-18 21:53:00,,0827.7,5.00,0.00,27.5,26.6,00.0,36.4,29.2,10.7,0000.0,0022.37,0007.33,0005.04
2022-04-18 21:54:00,,0827.7,5.00,0.00,27.5,26.6,00.0,36.4,29.2,10.6,0000.1,0020.59,0007.25,0005.06
2022-04-18 21:55:00,,0827.7,5.00,0.00,27.5,26.6,00.0,36.4,29.3,10.2,0003.7,0021.01,0007.37,0005.17
2022-04-18 21:56:00,,0827.9,5.00,0.00,27.5,26.7,00.0,36.4,29.3,10.3,0003.1,0022.00,0007.55,0005.32
2022-04-18 21:57:00,,0827.7,5.00,0.00,27.5,26.8,00.0,36.4,29.4,10.3,0002.2,0022.97,0007.69,0005.44
2022-04-18 21:58:00,,0827.7,5.00,0.00,27.5,26.9,00.0,36.4,29.4,10.2,0002.0,0023.00,0007.81,0005.55
2022-04-18 21:59:00,,0827.7,5.00,0.00,27.6,26.9,00.0,36.4,29.4,10.3,0000.0,0023.42,0007.90,0005.64
